Hourly Data Report for March 22, 2004

TORONTO CITY
ONTARIO

43°40'00.000" N
79°24'00.000" W
112.50 m
6158355
71508
XTO

Download Data

Hourly Data (March 2004)
Hourly Data Report for March 22, 2004
TIME
LST
Temp Definition
°C
Dew Point Definition
°C
Rel Hum Definition
%
Precip. Amount Definition
mm

Wind Dir Definition
10's deg

Wind Spd Definition
km/h
Visibility Definition
km
Stn Press Definition
kPa
Hmdx Definition


Wind Chill Definition


Weather Definition


00:00 -5.6 -18.1 37   LegendMM LegendMM LegendMM 100.91     LegendNANA
01:00 -6.2 -18.9 36   LegendMM LegendMM LegendMM 100.94     LegendNANA
02:00 -6.8 -18.8 38   LegendMM LegendMM LegendMM 100.98     LegendNANA
03:00 -7.4 -18.8 40   LegendMM LegendMM LegendMM 100.99     LegendNANA
04:00 -8.0 -18.8 42   LegendMM LegendMM LegendMM 101.03     LegendNANA
05:00 -8.5 -17.9 47   LegendMM LegendMM LegendMM 101.13     LegendNANA
06:00 -8.8 -17.4 50   LegendMM LegendMM LegendMM 101.21     LegendNANA
07:00 -9.3 -18.1 49   LegendMM LegendMM LegendMM 101.30     LegendNANA
08:00 -8.6 -18.8 43   LegendMM LegendMM LegendMM 101.40     LegendNANA
09:00 -7.7 -18.2 43   LegendMM LegendMM LegendMM 101.44     LegendNANA
10:00 -6.6 -17.5 42   LegendMM LegendMM LegendMM 101.47     LegendNANA
11:00 -5.1 -15.5 44   LegendMM LegendMM LegendMM 101.45     LegendNANA
12:00 -3.2 -14.4 42   LegendMM LegendMM LegendMM 101.40     LegendNANA
13:00 -2.9 -15.0 39   LegendMM LegendMM LegendMM 101.36     LegendNANA
14:00 -2.6 -16.4 34   LegendMM LegendMM LegendMM 101.27     LegendNANA
15:00 -2.0 -16.6 32   LegendMM LegendMM LegendMM 101.22     LegendNANA
16:00 -2.1 -15.6 35   LegendMM LegendMM LegendMM 101.20     LegendNANA
17:00 -2.1 -14.9 37   LegendMM LegendMM LegendMM 101.19     LegendNANA
18:00 -2.6 -14.4 40   LegendMM LegendMM LegendMM 101.17     LegendNANA
19:00 -3.2 -11.3 53   LegendMM LegendMM LegendMM 101.17     LegendNANA
20:00 -3.1 -13.2 46   LegendMM LegendMM LegendMM 101.16     LegendNANA
21:00 -3.1 -12.4 49   LegendMM LegendMM LegendMM 101.11     LegendNANA
22:00 -2.6 -8.6 63   LegendMM LegendMM LegendMM 101.06     LegendNANA
23:00 -2.3 -7.9 65   LegendMM LegendMM LegendMM 100.97     LegendNANA

Notes on Data Quality.

Legend

  • E = Estimated
  • M = Missing
  • NA = Not Available*
  • [empty] = Indicates an unobserved value
Date modified: